User: anonymous   Login
Location: Bushey
(51.6333°N, 0.3667°W)
Time: 00:18:09
(UTC+00:00)
Language:

Cosmos 2278 Rocket - Orbit

View from above orbital plane
View from above orbital plane
View from above satellite
View from above satellite

Ground track
Ground track

The orbit data is extracted from the following two-line orbital elements,

1 23088U 94023B   21138.48769954 -.00000169  00000-0 -63267-4 0  9992
2 23088  70.9985 157.9061 0000851  66.1915 293.9297 14.14689121397694
Epoch (UTC): 18 May 2021 11:42:17
Eccentricity: 0.0000851
inclination: 70.9985°
perigee height: 843 km
apogee height: 844 km
right ascension of ascending node: 157.9061°
argument of perigee: 66.1915°
revolutions per day: 14.14689121
mean anomaly at epoch: 293.9297°
orbit number at epoch: 39769

The dashed part of the orbit path shows where the satellite is in the earth's shadow,  

DLR